[[{"header":{"parameterUnit":"m.s-1","parameterCategory":1,"la1":30.2991,"la2":30.254,"lo1":-89.0895,"lo2":-89.0444,"dy":0.0017,"dx":0.0017,"nx":28,"ny":28,"refTime":"2024-03-01T09:00:00:Z","depth":0,"parameterNumber":2,"parameterNumberName":"U-component_of_WINDS"},"data":[0,0,0,0,0,0,0,0,0,0,0,0,0,0,0,0,0,0,0,0,0,0,0,0,0,0,0,0,0,0,0,0,0,0,0,0,0,0,0,0,0,0,0,0,0,0,0,0,0,0,0,0,0,0,0,0,0,0,-1.1009,-1.1009,0,-1.1001,-1.1001,-1.1001,-1.1002,-1.1002,-1.1002,-1.1002,-1.0993,-1.0992,-1.0992,0,0,0,0,0,0,0,0,0,0,0,0,0,-1.1024,-1.1024,-1.1009,-1.1009,-1.1009,-1.1001,-1.1001,-1.1,-1.1002,-1.1002,-1.1002,-1.1002,-1.0993,-1.0992,-1.0992,0,0,0,0,0,0,0,0,0,0,0,0,0,-1.1017,-1.1024,-1.1009,-1.1008,-1.1008,-1.1001,-1.1001,-1.1,-1.1001,-1.1002,-1.1002,-1.1002,-1.0993,-1.0992,-1.0992,-1.0984,0,0,-1.099,-1.099,0,0,0,0,0,0,0,0,-1.1017,-1.1016,-1.1008,-1.1008,-1.1008,-1.1002,-1.1003,-1.0995,-1.1001,-1.1004,-1.1002,-1.1002,-1.0996,-1.0995,-1.0993,-1.0984,-1.0984,-1.099,-1.099,-1.099,-1.0989,0,0,0,0,0,0,0,-1.1018,-1.1017,-1.1006,-1.1008,-1.1008,-1.1008,-1.1007,-1.1001,-1.0999,-1.1004,-1.1004,-1.1003,-1.0996,-1.0993,-1.0993,-1.0983,-1.099,-1.099,-1.0989,-1.0989,-1.0968,-1.0968,0,0,0,0,0,0,-1.1019,-1.1017,-1.1006,-1.1005,-1.1013,-1.1008,-1.1007,-1.1004,-1.0999,-1.0998,-1.1003,-1.1003,-1.0994,-1.0993,-1.0992,-1.0983,-1.099,-1.0989,-1.0989,-1.0968,-1.0968,-1.0968,0,0,0,0,0,0,-1.1019,-1.1018,-1.1006,-1.1011,-1.101,-1.1007,-1.1004,-1.1004,-1.1002,-1.0998,-1.0998,-1.1001,-1.0994,-1.0993,-1.0986,-1.0983,-1.0989,-1.0988,-1.0968,-1.0968,-1.0968,-1.0964,0,0,0,0,0,0,-1.102,-1.1018,-1.1015,-1.1011,-1.101,-1.1,-1.1004,-1.1003,-1.1001,-1.1001,-1.0996,-1.0996,-1.0995,-1.0987,-1.0986,-1.0982,-1.0988,-1.0969,-1.0968,-1.0968,-1.0965,-1.0964,-1.0963,0,0,0,0,0,-1.102,-1.1014,-1.1015,-1.1014,-1.1006,-1.1,-1.0999,-1.0998,-1.1,-1.0997,-1.0995,-1.0996,-1.0984,-1.0987,-1.0985,-1.0981,-1.0969,-1.0968,-1.0968,-1.0965,-1.0964,-1.0963,0,0,0,0,0,0,-1.1018,-1.1014,-1.1014,-1.1007,-1.1004,-1.1,-1.0997,-1.0997,-1.0993,-1.0993,-1.0992,-1.0991,-1.0984,-1.0982,-1.0985,-1.0973,-1.0976,-1.0976,-1.0975,-1.0974,-1.0973,-1.0974,-1.0987,0,0,0,0,0,-1.1016,-1.1012,-1.1009,-1.1003,-1.1001,-1.0999,-1.0997,-1.0996,-1.0993,-1.0991,-1.0989,-1.0985,-1.098,-1.0977,-1.0973,-1.0965,-1.0964,-1.0961,-1.0961,-1.096,-1.0959,-1.0954,-1.0953,-1.0966,-1.0966,-1.0966,0,0,-1.1013,-1.1011,-1.1008,-1.1003,-1.1,-1.0995,-1.0998,-1.0993,-1.099,-1.0991,-1.0984,-1.0982,-1.0978,-1.097,-1.0967,-1.0968,-1.0955,-1.0959,-1.0959,-1.0958,-1.0954,-1.0952,-1.0951,-1.0965,-1.0965,-1.0966,0,0,-1.1006,-1.1004,-1.0998,-1.0996,-1.0992,-1.0991,-1.0989,-1.0986,-1.0984,-1.0978,-1.0978,-1.0974,-1.0966,-1.0963,-1.096,-1.0952,-1.0952,-1.095,-1.0946,-1.0941,-1.094,-1.094,-1.0936,-1.0935,-1.095,-1.0949,-1.0949,0,-1.1002,-1.0996,-1.0995,-1.099,-1.0988,-1.0989,-1.0983,-1.0981,-1.0975,-1.0973,-1.0975,-1.0965,-1.0962,-1.0954,-1.0952,-1.095,-1.0948,-1.095,-1.0941,-1.094,-1.0939,-1.0935,-1.0934,-1.0949,-1.0949,-1.0949,-1.0949,0,-1.0992,-1.0987,-1.0983,-1.0978,-1.0975,-1.097,-1.0969,-1.0966,-1.0966,-1.0964,-1.0957,-1.0954,-1.0949,-1.0947,-1.0947,-1.0939,-1.094,-1.0941,-1.0944,-1.0938,-1.0934,-1.0933,-1.0949,-1.0949,-1.0949,-1.0949,0,0,-1.0982,-1.0977,-1.0975,-1.0973,-1.0969,-1.0965,-1.096,-1.0955,-1.0952,-1.0949,-1.0944,-1.0938,-1.0939,-1.0936,-1.0936,-1.0932,-1.0925,-1.0934,-1.0934,-1.0932,-1.0915,-1.0913,-1.0912,-1.0925,-1.0925,-1.0925,-1.0915,0,-1.0973,-1.0964,-1.0963,-1.0955,-1.095,-1.0951,-1.0947,-1.0944,-1.0942,-1.0938,-1.0936,-1.0931,-1.0934,-1.0932,-1.0928,-1.0926,-1.0921,-1.0927,-1.092,-1.092,-1.092,-1.091,-1.0908,-1.0899,-1.0914,-1.0914,-1.0913,0,-1.0962,-1.0958,-1.0949,-1.0945,-1.0944,-1.0939,-1.0935,-1.0931,-1.0928,-1.0927,-1.0924,-1.0924,-1.0918,-1.0922,-1.0914,-1.0918,-1.0915,-1.0913,-1.0913,-1.0912,-1.0916,-1.0908,-1.0897,-1.0895,-1.0912,-1.0912,-1.0912,0,-1.0954,-1.0947,-1.0941,-1.0939,-1.0935,-1.0932,-1.093,-1.0927,-1.0924,-1.092,-1.0918,-1.0914,-1.0911,-1.0907,-1.0906,-1.0909,-1.0898,-1.0901,-1.0896,-1.0896,-1.0893,-1.0893,-1.0881,-1.0893,-1.0893,-1.0893,-1.0893,0,-1.0944,-1.0939,-1.0937,-1.0933,-1.0927,-1.0927,-1.092,-1.0919,-1.0916,-1.0911,-1.0912,-1.0908,-1.0907,-1.0903,-1.0902,-1.0895,-1.0894,-1.0893,-1.0892,-1.0892,-1.0892,-1.089,-1.089,-1.0893,-1.0893,-1.0893,-1.0893,0,-1.0935,-1.0934,-1.0927,-1.0924,-1.0923,-1.0918,-1.0916,-1.0912,-1.0911,-1.0905,-1.0903,-1.0902,-1.0896,-1.0895,-1.0889,-1.0888,-1.088,-1.088,-1.0881,-1.0881,-1.0876,-1.0876,-1.086,-1.0858,-1.0872,-1.0872,-1.0872,0,-1.0928,-1.0924,-1.092,-1.0917,-1.0915,-1.0911,-1.0908,-1.0908,-1.0905,-1.09,-1.0897,-1.0892,-1.0888,-1.0879,-1.0877,-1.0872,-1.0872,-1.0867,-1.0871,-1.0871,-1.0871,-1.0871,-1.0871,-1.0866,-1.0866,-1.0866,-1.0866,0,-1.0916,-1.0916,-1.0912,-1.0907,-1.0904,-1.09,-1.0897,-1.0895,-1.0894,-1.089,-1.0885,-1.0882,-1.0876,-1.0871,-1.0866,-1.0864,-1.0864,-1.0864,-1.0863,-1.0862,-1.0862,-1.0862,-1.0878,-1.0865,-1.0865,-1.0865,-1.0865,-1.0865,-1.0907,-1.0903,-1.09,-1.0895,-1.0893,-1.089,-1.0886,-1.0885,-1.088,-1.0875,-1.0875,-1.0869,-1.0866,-1.086,-1.0857,-1.0853,-1.0854,-1.0852,-1.0851,-1.0851,-1.085,-1.0864,-1.0852,-1.0852,-1.0852,-1.0852,-1.0852,0,-1.0894,-1.0893,-1.0888,-1.0884,-1.088,-1.0882,-1.0878,-1.0875,-1.087,-1.0867,-1.0863,-1.0857,-1.0852,-1.0849,-1.0844,-1.0841,-1.0841,-1.084,-1.0839,-1.0839,-1.0849,-1.0851,-1.084,-1.084,-1.084,-1.084,-1.084,-1.084,-1.0887,-1.0881,-1.088,-1.0872,-1.087,-1.0865,-1.0863,-1.086,-1.0857,-1.085,-1.0846,-1.0845,-1.0842,-1.0837,-1.0833,-1.0832,-1.083,-1.0828,-1.0827,-1.0837,-1.0838,-1.0839,-1.0841,-1.0828,-1.0828,-1.0817,-1.0817,-1.0817]},{"header":{"parameterUnit":"m.s-1","parameterCategory":1,"la1":30.2991,"la2":30.254,"lo1":-89.0895,"lo2":-89.0444,"dy":0.0017,"dx":0.0017,"nx":28,"ny":28,"refTime":"2024-03-01T09:00:00:Z","depth":0,"parameterNumber":3,"parameterNumberName":"V-component_of_WINDS"},"data":[0,0,0,0,0,0,0,0,0,0,0,0,0,0,0,0,0,0,0,0,0,0,0,0,0,0,0,0,0,0,0,0,0,0,0,0,0,0,0,0,0,0,0,0,0,0,0,0,0,0,0,0,0,0,0,0,0,0,0.569,0.5691,0,0.5761,0.5761,0.5762,0.5768,0.5767,0.5767,0.5766,0.5838,0.584,0.5843,0,0,0,0,0,0,0,0,0,0,0,0,0,0.5559,0.5561,0.569,0.5691,0.5692,0.5761,0.5762,0.5762,0.5768,0.5767,0.5766,0.5765,0.5837,0.584,0.5843,0,0,0,0,0,0,0,0,0,0,0,0,0,0.5621,0.5562,0.569,0.5703,0.5705,0.576,0.5762,0.5763,0.5768,0.5767,0.5766,0.5765,0.5836,0.584,0.5844,0.5891,0,0,0.5856,0.5857,0,0,0,0,0,0,0,0,0.5618,0.5626,0.57,0.5702,0.5704,0.5754,0.5742,0.5806,0.5769,0.5744,0.5766,0.5764,0.5811,0.5817,0.5833,0.5894,0.5897,0.5856,0.5858,0.586,0.5861,0,0,0,0,0,0,0,0.5614,0.5623,0.5718,0.5701,0.5704,0.5705,0.5713,0.5754,0.5783,0.5746,0.5747,0.5755,0.5812,0.5829,0.5834,0.5898,0.5856,0.5859,0.5862,0.5863,0.6003,0.6004,0,0,0,0,0,0,0.5607,0.562,0.5716,0.572,0.5657,0.5708,0.5717,0.5739,0.5783,0.5788,0.5756,0.5755,0.5823,0.583,0.5837,0.5896,0.586,0.5864,0.5866,0.6002,0.6003,0.6005,0,0,0,0,0,0,0.5604,0.5615,0.5713,0.567,0.5682,0.5712,0.5737,0.5741,0.5758,0.579,0.5795,0.5768,0.5822,0.5831,0.5878,0.5898,0.5866,0.5869,0.6,0.6002,0.6004,0.6013,0,0,0,0,0,0,0.56,0.5614,0.5633,0.567,0.5685,0.5752,0.5738,0.5744,0.5765,0.5765,0.5803,0.5808,0.5822,0.5872,0.5882,0.5903,0.5872,0.5998,0.6001,0.6003,0.6011,0.6015,0.6019,0,0,0,0,0,0.5596,0.5632,0.5634,0.5645,0.5708,0.5754,0.5762,0.5777,0.5767,0.5786,0.5806,0.5807,0.5894,0.5876,0.5888,0.5911,0.5997,0.6,0.6003,0.601,0.6015,0.6019,0,0,0,0,0,0,0.5596,0.5637,0.5639,0.5689,0.5718,0.5754,0.5779,0.5782,0.5814,0.5812,0.583,0.5838,0.5884,0.5902,0.5881,0.5959,0.5944,0.595,0.5946,0.5951,0.5954,0.5949,0.5875,0,0,0,0,0,0.5602,0.5635,0.567,0.571,0.5725,0.5749,0.5769,0.5779,0.5809,0.5821,0.5845,0.5874,0.5908,0.593,0.5963,0.6014,0.6022,0.6035,0.6039,0.6042,0.6046,0.6075,0.6081,0.6014,0.6014,0.6014,0,0,0.5615,0.5641,0.5661,0.5711,0.5735,0.5769,0.5759,0.5796,0.5821,0.5827,0.5872,0.589,0.5924,0.5973,0.5995,0.5989,0.6066,0.6045,0.6048,0.6051,0.6078,0.6085,0.609,0.6017,0.6016,0.6016,0,0,0.5655,0.5679,0.5716,0.5739,0.5775,0.5791,0.5799,0.5836,0.5848,0.5894,0.5899,0.5929,0.5987,0.6011,0.6031,0.6081,0.6083,0.6091,0.6111,0.6139,0.6144,0.6148,0.6167,0.6173,0.6095,0.6095,0.6095,0,0.5667,0.5719,0.5734,0.5771,0.5793,0.5799,0.5837,0.5859,0.5903,0.5918,0.591,0.5984,0.6007,0.6061,0.6073,0.6089,0.61,0.6087,0.6142,0.6147,0.6151,0.6169,0.6176,0.6096,0.6096,0.6096,0.6096,0,0.5731,0.5767,0.5792,0.5835,0.586,0.5897,0.5918,0.5941,0.5948,0.5965,0.6012,0.6039,0.6079,0.6092,0.6099,0.6148,0.6143,0.6138,0.6124,0.6158,0.6175,0.6182,0.6097,0.6097,0.6097,0.6097,0,0,0.5775,0.5826,0.5835,0.5855,0.5894,0.5922,0.5959,0.5998,0.6017,0.6047,0.6079,0.6128,0.6125,0.6147,0.6157,0.6181,0.6219,0.6173,0.6174,0.6181,0.6275,0.6279,0.6286,0.622,0.6222,0.6223,0.6272,0,0.582,0.5887,0.5902,0.5959,0.5993,0.5999,0.6032,0.6059,0.6076,0.6107,0.6125,0.616,0.6151,0.6165,0.6189,0.6209,0.6238,0.6206,0.625,0.6252,0.6242,0.6295,0.6299,0.6344,0.6279,0.628,0.6281,0,0.5883,0.5915,0.5976,0.6011,0.6026,0.6054,0.6091,0.612,0.6152,0.6162,0.6187,0.6195,0.6233,0.6217,0.6271,0.6248,0.6267,0.628,0.6282,0.6287,0.6269,0.6302,0.6359,0.6366,0.6291,0.629,0.629,0,0.591,0.5968,0.6012,0.6028,0.607,0.6091,0.6109,0.6139,0.6162,0.6193,0.6208,0.6244,0.6263,0.6291,0.6307,0.6294,0.636,0.6345,0.637,0.6369,0.6384,0.6383,0.6446,0.6395,0.6395,0.6395,0.6395,0,0.596,0.5997,0.6024,0.6052,0.6093,0.611,0.6151,0.6169,0.6196,0.6227,0.6234,0.6263,0.6283,0.6314,0.6327,0.637,0.6379,0.6388,0.6391,0.6388,0.6387,0.6401,0.6399,0.6397,0.6396,0.6396,0.6395,0,0.5997,0.6017,0.6065,0.6101,0.6111,0.614,0.6171,0.6198,0.6214,0.6253,0.6263,0.6289,0.6326,0.6345,0.6392,0.6401,0.6449,0.645,0.6439,0.644,0.6464,0.6462,0.6539,0.655,0.6491,0.6492,0.6492,0,0.6028,0.6057,0.6096,0.6117,0.6136,0.617,0.6193,0.621,0.6233,0.6271,0.6294,0.6331,0.6363,0.6422,0.6445,0.648,0.6483,0.6507,0.6488,0.6484,0.6484,0.6482,0.6485,0.6511,0.6511,0.6512,0.6512,0,0.6081,0.609,0.6123,0.6159,0.6186,0.6215,0.6244,0.6261,0.6283,0.6309,0.6347,0.6371,0.6419,0.6457,0.6494,0.6512,0.6516,0.6518,0.6525,0.6523,0.6515,0.6521,0.6449,0.6516,0.6516,0.6515,0.6515,0.6515,0.6117,0.6143,0.6175,0.6211,0.6235,0.6261,0.6288,0.6308,0.6341,0.6381,0.6389,0.643,0.646,0.6511,0.6531,0.6563,0.6558,0.6569,0.6572,0.6574,0.6576,0.651,0.6569,0.6569,0.6569,0.6569,0.6569,0,0.6172,0.6192,0.6225,0.6266,0.6294,0.6295,0.6327,0.6351,0.6387,0.6415,0.6446,0.649,0.6526,0.6552,0.6589,0.661,0.6612,0.6619,0.6618,0.6622,0.6578,0.6568,0.6616,0.6616,0.6616,0.6616,0.6616,0.6616,0.6204,0.6248,0.626,0.6316,0.6336,0.6377,0.6395,0.642,0.6442,0.6492,0.6522,0.6538,0.6566,0.6605,0.6638,0.6644,0.6658,0.6665,0.6671,0.663,0.6625,0.662,0.6611,0.6667,0.6667,0.6713,0.6713,0.6714]}]]